Wind_Speed
55 55 56 55 54 52 50 49 49 47 45 44 43 41 40 39 38 37 37 37 36 35 33 32 30 30 30 29 28 28 28 26 24 23 23 22 22 22 23 23 23 23 24 24 21 20 21 22 21 21 20 19 18 17 18 17 16 16 15 15 16 15 15 15 16 16 16 17 18 19 21 23 23 23 23 23 23 23 22 23 23 24 25 26 27 27
55 55 55 53 50 50 49 48 48 47 46 45 44 43 42 41 40 39 39 38 36 35 33 32 31 30 30 30 30 29 27 27 26 25 25 24 24 24 24 24 24 25 25 24 22 21 23 23 24 23 23 21 20 20 20 19 18 18 17 17 18 17 17 17 17 18 18 18 19 21 22 23 23 24 24 25 25 25 24 24 24 25 26 27 28 28
57 56 53 50 50 50 50 49 48 47 46 45 44 43 43 42 41 40 39 37 35 34 32 32 31 30 30 32 31 29 27 28 28 27 26 26 25 25 25 26 26 26 26 25 24 24 24 24 25 25 24 23 22 22 21 21 21 20 20 20 20 19 19 19 19 19 19 19 20 22 24 24 24 25 25 26 27 27 26 25 25 26 27 28 29 30
57 55 52 50 50 50 50 50 49 48 47 46 45 44 44 42 41 40 38 37 35 34 33 32 31 30 32 33 32 30 28 28 29 28 28 27 27 27 27 27 27 27 27 26 26 26 25 25 25 25 25 25 24 23 23 24 23 22 22 22 22 22 22 22 21 22 21 21 22 23 25 26 26 26 26 27 27 28 27 27 27 27 28 29 30 31
52 49 49 49 49 50 50 50 49 48 48 47 46 45 45 43 42 40 39 38 37 36 34 33 33 32 32 32 31 31 29 29 30 30 29 29 29 29 29 28 28 27 27 27 27 26 26 25 25 26 26 26 25 25 26 26 25 24 24 24 24 24 25 24 24 24 23 23 24 25 26 27 28 28 28 28 29 29 29 29 29 28 29 30 31 32
48 46 47 47 48 48 49 49 48 48 48 47 47 46 45 44 43 41 39 38 37 36 35 34 34 32 31 31 31 32 31 30 31 31 30 31 31 31 31 30 29 28 28 28 28 27 26 25 25 26 26 27 27 27 28 28 26 26 26 26 26 26 26 26 26 25 25 25 26 27 28 29 29 29 29 30 30 30 31 31 30 30 30 31 32 33
48 46 47 47 47 48 48 48 48 47 48 48 47 46 45 44 42 41 39 38 37 37 35 34 35 32 31 31 32 32 31 30 31 31 31 33 33 32 32 31 30 29 29 29 29 29 28 26 26 26 26 27 28 29 29 29 29 29 29 28 28 28 28 27 27 27 27 27 28 30 30 31 31 30 30 31 31 32 31 31 32 32 32 33 34 34
49 47 47 48 48 49 49 48 47 47 47 47 47 46 45 44 42 41 40 39 38 37 36 35 35 34 31 31 31 31 31 31 31 31 32 33 34 33 33 32 31 31 30 30 30 31 30 28 26 26 26 27 28 29 30 30 31 31 30 30 29 29 29 28 28 28 28 29 30 31 32 33 32 31 31 32 33 33 32 32 33 33 33 34 35 36
48 47 46 46 47 48 48 47 47 47 47 46 46 46 45 44 43 42 41 41 40 39 38 36 35 35 32 29 30 31 31 31 31 31 33 34 34 34 34 34 33 32 31 31 31 32 32 31 29 28 27 28 28 29 30 31 31 31 31 31 30 30 30 30 30 29 30 31 32 33 33 34 33 32 32 33 35 35 34 33 34 34 35 36 37 38
45 44 44 44 45 46 45 46 46 47 47 46 46 46 46 45 44 44 43 42 41 41 39 37 35 36 33 29 29 30 30 30 31 31 32 33 34 35 35 35 35 34 33 32 32 33 33 33 31 30 29 29 29 29 30 30 31 32 32 31 31 31 31 31 31 31 31 32 33 34 34 34 34 33 34 35 36 36 35 34 35 35 36 38 39 40
44 43 44 44 45 46 46 47 47 47 48 48 47 47 46 46 46 45 44 43 43 42 40 37 35 35 33 29 27 29 29 29 30 32 31 32 34 35 35 36 36 36 35 34 34 33 34 34 33 32 31 31 31 30 31 31 32 32 32 32 32 32 33 33 33 33 34 34 35 35 35 35 35 35 35 36 36 36 35 35 36 36 38 39 41 42
46 46 46 46 45 46 47 47 48 49 49 49 48 47 47 47 47 46 46 45 45 43 40 37 35 35 34 29 26 27 28 29 30 31 31 31 33 34 35 36 36 37 37 36 36 35 34 34 34 34 33 33 32 32 32 33 33 33 34 34 34 34 34 34 35 35 35 36 36 36 36 36 36 36 36 36 36 36 36 36 37 38 39 41 42 43
49 48 48 48 48 47 48 48 49 50 50 49 49 49 49 49 49 48 47 46 45 42 39 37 36 36 33 29 27 27 27 29 29 30 31 31 32 33 35 36 36 37 37 37 37 37 36 35 35 34 34 34 34 34 34 34 35 35 35 35 36 36 36 36 37 37 37 36 36 36 36 36 36 36 36 36 36 36 37 37 38 39 41 42 43 44
51 51 51 51 50 49 49 49 50 51 50 50 50 50 50 50 49 48 47 46 44 41 39 37 37 36 33 30 30 29 28 27 27 28 30 31 32 33 34 35 36 36 37 37 38 38 38 37 36 36 36 36 36 36 36 37 37 37 37 36 36 37 37 38 38 38 38 37 37 37 36 36 36 36 36 37 37 38 38 39 39 41 42 43 44 44
50 51 51 51 51 50 49 49 48 48 48 49 49 48 48 48 47 46 45 44 43 41 40 39 38 37 34 32 32 30 29 27 26 28 29 30 32 33 34 34 35 36 36 37 38 38 38 38 38 38 38 38 38 38 38 38 38 37 37 37 38 38 39 39 39 39 38 38 37 36 36 35 36 37 37 38 38 39 39 40 41 42 43 44 44 45
48 48 48 48 48 48 48 47 47 48 49 49 49 49 48 47 47 46 45 44 43 43 43 41 40 37 35 35 33 31 30 28 28 28 29 30 32 33 34 35 35 36 36 37 37 38 38 39 39 39 39 38 38 38 38 38 38 38 38 38 39 39 40 40 40 39 38 37 36 36 36 36 37 38 38 38 39 39 40 41 42 43 44 45 46 47
49 48 47 47 47 47 47 47 47 48 49 49 50 50 48 47 46 45 45 45 44 44 43 42 40 37 36 36 35 32 31 31 31 30 30 31 32 33 35 35 36 37 37 38 38 38 38 39 39 39 39 38 38 39 39 39 39 39 40 40 40 40 40 40 39 38 37 36 36 37 37 38 38 39 39 39 39 40 41 42 43 45 46 47 48 49
47 47 47 47 47 47 47 47 47 48 48 48 48 47 45 45 45 44 43 44 43 43 43 42 39 37 37 37 35 35 35 34 33 32 31 32 33 33 34 35 37 38 38 39 39 39 39 39 39 39 39 40 40 40 40 40 40 41 41 41 40 40 40 39 38 38 37 37 37 38 38 39 39 39 39 39 40 41 42 44 45 47 48 50 51 52
45 45 46 46 46 46 46 46 47 47 47 46 45 44 43 44 44 44 44 44 44 44 43 42 40 39 38 37 37 37 38 36 34 32 32 31 32 32 34 35 37 38 39 39 40 40 40 40 40 40 41 42 42 42 42 42 42 41 41 41 40 40 39 39 38 38 38 38 38 39 39 39 39 39 40 40 42 43 44 46 47 49 51 52 53 55
46 46 46 46 46 45 45 46 47 46 46 46 45 45 45 44 44 43 44 44 44 44 43 43 42 41 39 38 39 40 39 38 35 33 32 31 31 31 33 35 37 38 39 40 40 40 40 41 41 42 43 43 43 43 42 42 42 42 41 41 40 40 39 39 39 39 39 39 39 40 40 40 41 41 42 42 44 46 47 48 50 51 53 54 56 57
48 48 47 47 47 47 47 46 46 45 44 44 44 44 44 44 44 44 43 43 43 43 44 44 44 42 41 41 41 40 39 39 37 36 34 33 32 32 33 34 37 39 40 40 39 39 40 40 41 42 42 42 42 42 42 41 41 41 41 41 40 39 39 39 39 39 39 40 41 41 42 43 43 44 44 45 47 49 50 51 52 53 54 56 57 58
51 50 49 49 48 48 47 46 45 44 44 43 43 42 41 41 40 41 42 42 42 43 45 46 47 45 43 43 42 40 39 39 39 37 35 35 35 35 35 35 37 39 40 40 40 40 40 41 41 42 41 41 41 40 40 40 41 41 41 40 40 39 39 39 39 39 40 42 43 44 44 45 46 47 48 49 50 51 52 53 54 55 56 57 58 58
51 50 50 50 49 48 47 47 46 45 44 44 44 43 42 41 41 41 42 43 43 45 46 46 48 47 45 44 43 41 41 41 39 38 37 36 37 37 36 36 37 39 40 41 42 42 41 41 40 40 39 39 39 39 40 41 41 41 41 41 40 40 40 40 40 41 43 44 45 46 47 48 49 50 50 51 52 53 54 55 56 56 57 57 58 58
50 49 49 49 49 49 48 47 47 46 45 45 45 44 43 43 43 43 44 44 45 46 46 46 49 49 46 44 44 43 42 41 40 39 38 37 37 37 37 37 38 39 41 42 43 43 42 41 40 39 38 38 39 40 41 42 42 42 42 42 42 42 42 42 42 44 45 47 48 48 49 50 51 52 52 53 54 55 55 56 56 57 57 58 59 60
52 51 51 50 49 50 50 50 49 48 48 47 46 46 46 45 45 44 44 44 45 45 44 45 48 48 44 43 44 44 42 40 40 40 39 38 38 37 37 37 38 39 41 42 43 43 43 42 42 41 40 40 41 42 43 43 43 43 43 43 43 43 43 44 45 46 48 49 50 51 52 53 53 54 54 55 56 57 57 57 57 58 59 60 61 61
54 54 53 52 52 52 53 54 53 50 49 49 49 48 47 45 44 43 43 43 44 43 43 44 45 44 41 41 44 44 41 40 40 40 40 40 40 39 38 38 39 40 41 42 43 43 43 43 43 42 42 43 44 44 44 44 44 44 44 45 45 46 46 47 48 49 50 52 53 54 55 56 56 57 58 58 58 58 59 59 59 60 60 60 60 60
58 57 56 55 54 54 53 52 50 48 47 47 46 45 44 44 43 42 42 43 42 42 43 43 42 42 42 42 45 46 42 40 41 40 41 41 41 41 41 41 41 41 42 42 43 43 44 44 44 44 45 46 46 46 46 46 46 46 47 48 48 49 50 51 51 51 52 54 55 57 58 59 60 60 60 60 60 60 61 61 61 61 60 59 58 57
63 62 61 59 58 56 54 52 50 49 48 47 46 45 45 44 44 44 45 44 43 44 47 45 42 44 46 44 44 44 42 42 42 42 43 44 45 45 44 43 42 42 42 43 43 44 44 45 46 47 48 48 48 48 48 47 48 48 49 50 51 52 52 53 53 54 55 56 57 59 60 61 62 62 62 62 62 63 63 63 63 62 60 58 57 56
66 67 65 63 61 59 57 56 55 53 52 51 51 50 49 48 49 48 48 47 47 48 50 48 45 48 49 45 44 44 44 45 45 45 45 47 47 46 45 44 44 44 44 44 45 46 47 48 49 49 50 50 49 49 49 49 50 50 51 52 53 53 54 55 56 57 58 59 59 60 61 62 62 63 64 64 64 65 65 65 64 62 61 58 56 55
64 67 68 66 64 62 61 60 58 57 56 56 55 54 53 52 51 50 49 48 49 50 50 49 49 51 50 47 45 45 46 47 47 46 46 46 45 45 44 44 45 46 47 47 48 50 50 50 49 50 50 50 50 50 51 51 52 53 54 54 55 56 57 58 59 60 60 61 61 62 62 63 63 64 64 65 65 65 65 64 62 61 59 57 56 54
58 62 66 68 67 67 65 63 62 62 61 60 59 58 57 55 53 52 52 51 52 53 51 50 52 52 49 46 44 44 45 47 48 47 46 46 46 46 47 47 48 49 51 52 52 52 52 51 51 51 51 51 52 52 53 54 55 56 56 57 58 58 59 60 61 62 62 63 63 63 63 63 63 64 64 64 64 63 62 61 60 59 58 56 55 55
54 56 59 62 66 69 68 67 67 66 65 65 64 62 60 59 57 56 55 54 54 54 51 50 53 52 47 45 45 45 45 47 48 49 49 49 49 50 50 51 52 52 53 54 53 53 53 53 53 53 53 54 54 55 56 56 57 58 58 59 60 61 62 62 63 63 63 63 63 63 63 63 63 63 63 63 62 61 60 59 58 57 56 55 55 54
52 52 53 55 58 63 64 65 67 67 69 70 68 64 62 60 58 57 57 56 54 53 52 52 52 51 49 47 47 48 48 49 50 51 52 52 52 53 53 54 54 53 53 54 54 54 55 55 55 55 56 56 57 57 58 59 59 60 60 61 62 63 64 64 64 64 64 64 64 64 63 63 63 63 62 61 60 59 58 57 57 55 55 54 53 52
52 53 53 53 54 56 58 58 59 64 70 72 68 64 62 61 60 60 59 57 55 55 54 53 52 52 52 52 52 51 51 52 52 53 54 54 55 55 55 55 54 54 54 55 55 56 57 57 57 58 58 59 59 60 60 61 61 62 63 64 65 65 65 65 65 65 65 65 65 65 64 64 63 62 61 60 59 57 56 55 54 53 52 52 51 51
54 54 54 53 53 55 56 55 57 62 67 68 66 65 65 64 63 62 62 60 59 59 58 56 55 54 55 56 55 55 54 54 55 56 56 57 57 57 57 56 57 57 57 58 58 59 59 59 60 61 62 62 63 63 63 63 64 65 66 66 67 67 67 67 67 66 66 66 66 65 65 64 63 61 60 58 56 55 54 53 52 52 51 51 51 51
54 55 55 55 55 56 57 58 60 60 60 61 63 64 64 65 65 65 65 64 62 62 61 60 57 55 55 57 58 58 58 58 59 59 59 59 60 60 59 59 59 60 61 61 61 62 63 63 64 64 65 65 65 65 66 66 66 67 67 67 67 67 67 67 67 67 66 66 65 65 64 62 61 59 57 55 54 53 53 53 52 52 52 52 53 53
55 55 55 56 57 57 59 60 59 58 57 57 58 59 60 60 60 61 63 63 61 60 61 60 59 56 56 57 59 60 61 62 63 62 61 61 61 61 61 62 62 63 63 63 64 65 65 66 66 67 67 67 67 68 68 68 67 67 67 67 67 67 67 67 66 66 65 65 64 63 61 60 58 56 55 54 54 54 54 54 54 54 54 54 55 55
57 57 56 57 58 58 59 59 59 60 60 57 55 56 56 55 55 56 59 61 60 58 59 60 59 57 56 57 59 60 62 64 64 62 60 60 61 61 62 63 64 64 65 65 66 66 67 68 68 68 68 68 69 69 68 68 68 67 67 67 67 67 66 66 65 64 63 63 62 60 59 58 57 56 55 55 55 55 56 56 56 56 56 57 57 58
59 59 57 57 59 59 60 61 62 62 59 55 53 54 54 55 54 54 59 61 57 55 56 57 57 56 56 57 59 60 62 63 63 61 60 60 62 63 64 65 66 66 67 67 68 68 68 69 69 69 69 69 69 69 68 68 68 68 67 67 66 65 65 64 63 63 62 61 60 59 58 58 57 57 57 57 57 57 58 58 59 59 60 60 61 61
60 61 61 61 61 62 62 62 63 62 58 55 55 55 55 55 55 57 60 59 53 52 53 53 54 55 55 56 57 59 61 62 61 61 62 63 64 65 66 66 67 67 67 68 68 69 69 69 70 70 70 70 69 69 69 68 68 67 67 66 65 64 63 63 62 62 61 61 60 60 59 58 58 58 58 59 59 59 60 61 62 62 63 63 64 64
59 60 61 62 62 62 62 62 63 63 59 56 57 57 56 56 58 60 60 55 51 51 50 51 52 53 53 55 56 58 59 60 61 63 64 64 65 66 66 67 67 67 68 68 69 69 70 70 70 70 70 70 70 69 69 68 67 66 65 64 64 63 63 62 62 62 62 62 61 61 60 60 60 60 61 62 62 63 64 65 65 66 66 66 67 67
56 57 60 61 61 62 62 61 63 63 60 59 59 60 60 61 61 60 56 52 52 52 50 51 53 52 53 55 56 57 59 60 61 62 63 64 65 65 66 66 67 67 68 68 69 69 69 69 69 69 69 69 69 69 68 67 66 65 64 64 64 63 63 63 63 63 63 63 63 63 63 63 64 64 64 65 66 66 67 68 68 68 69 69 69 69
50 52 54 56 57 59 60 61 63 63 60 59 61 63 64 63 60 57 54 53 54 54 53 55 55 55 55 56 57 58 60 60 61 62 63 64 65 65 66 66 67 67 67 67 68 68 68 68 68 68 68 67 67 66 65 64 64 64 64 64 64 64 64 64 65 65 66 66 66 67 67 67 68 68 68 69 69 70 70 71 71 71 71 71 71 71
50 50 51 51 51 54 57 57 58 58 57 57 58 58 60 59 57 56 56 56 56 57 57 59 59 59 59 58 59 61 61 62 63 63 63 64 65 65 66 67 67 67 67 67 67 66 66 65 65 65 64 64 63 63 63 63 64 64 64 64 65 65 66 67 68 68 69 70 70 70 70 71 71 72 72 73 73 73 73 73 73 73 73 74 74 74
51 51 51 49 49 51 51 50 48 50 52 55 55 54 55 57 56 56 57 57 58 59 59 60 62 62 62 62 62 62 62 63 64 64 65 65 65 65 66 66 66 66 65 64 63 62 62 61 61 62 62 62 62 63 63 64 64 64 65 65 66 67 68 69 70 71 71 71 72 72 72 73 73 74 74 74 74 74 74 74 74 75 75 76 77 77
51 50 50 50 51 51 51 49 48 50 52 55 57 56 55 55 56 56 55 55 56 57 58 59 61 62 62 62 61 60 60 60 60 61 62 62 61 61 61 61 61 61 60 60 60 60 60 61 61 62 62 63 63 64 65 65 66 66 67 67 68 69 70 71 72 72 72 73 73 73 73 74 75 75 75 76 76 76 77 77 77 78 78 78 79 79
54 54 53 53 53 54 53 51 51 52 53 55 57 57 56 54 54 54 54 55 55 55 55 56 56 57 57 56 55 55 55 54 54 54 54 54 55 56 56 57 58 58 59 60 60 60 61 61 62 62 63 64 66 67 68 68 69 69 70 70 71 72 72 72 73 73 73 73 74 74 75 75 76 77 77 78 78 79 79 80 80 80 80 81 81 81
56 56 56 56 55 55 53 51 50 51 53 54 56 56 56 55 54 53 53 53 53 53 53 53 53 53 53 52 52 52 52 52 52 52 53 53 54 55 55 56 57 59 60 61 61 62 63 63 64 65 66 68 70 71 71 72 72 73 73 73 73 73 73 74 74 74 75 75 76 76 77 78 78 79 79 80 80 80 80 81 82 82 82 83 84 84
57 57 57 57 57 56 55 53 53 54 54 55 55 55 55 56 56 55 54 53 53 53 53 53 52 52 52 51 51 51 52 53 53 54 55 56 56 57 58 58 59 60 62 63 64 65 66 67 68 69 71 72 74 74 75 75 75 75 75 74 75 75 75 76 76 77 77 78 78 79 79 79 80 80 80 80 80 80 81 81 82 83 83 83 85 86
58 58 58 58 59 58 55 54 55 56 56 55 55 55 56 57 58 58 58 57 56 56 56 56 55 55 55 55 55 56 56 57 58 58 59 59 60 61 62 63 64 64 65 66 67 68 69 70 71 72 73 74 75 76 76 76 75 76 76 76 77 77 77 78 78 79 79 79 80 80 80 81 81 81 82 82 82 82 82 82 82 83 83 84 85 86
58 58 58 59 58 56 54 53 55 57 57 57 57 59 60 60 60 60 61 61 60 60 59 59 60 60 60 61 61 62 62 62 62 63 62 63 63 64 64 65 66 66 66 67 67 68 70 71 71 72 74 75 76 76 76 76 76 76 77 77 78 78 78 78 78 79 80 80 81 81 81 82 82 82 83 83 84 84 84 84 84 84 85 86 88 89
Wind_Direction
200 201 200 200 200 202 204 205 205 203 202 202 202 203 202 203 203 204 206 208 210 210 210 211 209 211 217 219 219 218 220 222 220 217 218 218 217 218 219 220 222 222 225 231 232 228 226 226 227 230 232 233 235 240 246 251 256 260 265 270 274 277 283 286 287 290 296 301 306 311 313 313 313 313 312 313 313 312 310 311 313 314 316 319 320 319
202 202 200 201 203 206 208 208 207 206 205 204 204 203 203 204 204 205 208 209 211 212 211 213 212 212 217 221 222 220 219 223 223 219 218 220 219 220 221 223 224 225 228 232 233 231 229 228 228 231 235 236 238 242 248 253 257 261 265 269 272 276 280 282 284 287 292 297 302 307 309 310 311 310 309 310 311 310 309 310 310 310 313 316 316 315
201 201 201 203 206 208 209 209 208 207 207 206 205 205 205 205 206 207 210 212 214 215 214 216 215 213 218 223 225 222 219 221 225 223 220 221 222 223 224 225 227 228 231 232 232 233 232 231 230 232 236 238 240 244 249 254 258 262 266 269 273 276 280 282 284 286 288 292 298 304 306 307 307 306 305 306 307 307 308 307 306 308 311 313 313 313
201 201 203 206 207 209 209 209 209 208 208 207 207 206 206 207 208 210 212 214 216 218 217 218 218 215 219 224 227 227 221 221 226 227 225 224 224 225 226 227 229 231 233 233 232 234 235 235 234 234 237 239 242 246 250 253 257 261 266 270 273 277 280 283 285 285 286 290 295 299 303 304 304 303 302 302 303 305 305 304 304 306 309 310 311 311
205 205 207 208 209 210 210 210 209 209 209 209 208 208 208 209 211 212 214 216 218 220 219 221 221 217 219 224 228 230 227 223 227 229 229 228 226 227 229 229 231 233 237 237 236 236 237 238 239 238 239 241 244 247 250 253 256 261 265 268 272 276 279 283 284 284 286 289 293 296 299 301 302 301 300 300 302 304 303 301 302 304 306 308 308 308
206 208 210 211 212 212 212 211 211 211 212 211 210 210 210 212 214 215 216 218 220 221 221 224 225 219 220 225 227 231 231 226 227 230 231 232 230 230 231 232 234 236 240 242 242 241 240 240 240 240 241 243 245 248 251 254 257 261 264 266 270 274 278 281 282 284 285 288 291 294 297 299 300 299 297 299 302 303 301 300 301 302 303 305 305 306
206 207 209 211 212 213 213 213 213 214 214 214 212 212 213 215 216 217 219 221 222 223 223 226 228 222 219 225 228 230 233 231 229 230 231 234 235 234 234 235 236 237 240 243 245 246 245 243 242 241 241 243 245 248 252 255 257 260 262 265 268 271 275 279 281 283 284 287 290 292 295 297 298 297 297 298 300 300 299 298 298 299 301 303 304 304
206 207 209 211 212 213 213 214 215 216 216 215 214 215 216 217 219 220 221 223 223 224 225 225 228 226 220 224 229 231 234 234 232 231 232 235 236 237 238 238 239 239 240 244 247 249 250 248 247 245 243 243 245 247 251 254 256 259 262 265 267 270 274 277 280 281 283 286 289 291 293 296 297 297 296 297 298 299 298 296 296 297 299 300 302 303
206 208 211 212 213 214 214 215 216 217 217 216 216 217 218 219 221 222 222 224 225 226 226 225 228 229 222 221 230 233 234 236 235 234 234 235 236 238 239 240 241 242 242 244 246 250 252 251 250 249 247 248 249 250 252 254 257 260 263 265 267 270 274 277 278 279 282 285 288 290 292 294 295 295 295 295 296 297 296 295 295 296 297 299 301 302
208 209 212 213 214 214 215 216 217 218 218 217 218 219 219 220 222 224 225 225 227 227 227 226 229 232 226 220 228 234 235 237 238 237 236 236 237 238 239 240 241 243 244 245 247 249 251 252 253 252 252 254 254 255 256 257 259 262 264 266 268 271 274 275 277 279 282 285 287 289 291 293 293 293 293 294 295 295 295 294 295 296 297 298 300 300
208 209 212 213 214 214 215 216 216 217 218 218 219 220 220 222 223 225 226 227 229 228 227 228 230 233 230 222 226 234 237 238 239 240 240 238 238 238 238 240 241 243 245 246 248 250 251 252 253 255 255 255 256 257 258 259 261 263 265 267 269 271 273 274 276 279 282 285 287 289 290 290 291 291 292 293 293 294 294 294 295 296 296 297 298 299
206 208 210 212 213 214 216 217 217 218 219 219 220 220 222 224 225 226 227 227 229 228 227 229 232 235 232 224 226 233 237 239 239 241 242 240 239 239 239 240 241 243 245 247 248 250 251 252 253 255 256 257 257 258 259 261 263 264 266 267 268 270 272 274 276 279 282 285 286 287 287 288 289 290 291 291 291 292 293 293 294 294 295 296 297 299
206 208 209 210 212 213 215 216 217 218 219 219 220 221 222 224 225 227 228 228 229 229 229 232 234 235 233 230 231 231 234 238 239 242 244 244 244 243 242 242 242 243 244 246 248 250 252 253 255 256 257 258 259 260 261 262 263 264 265 266 267 269 271 274 277 280 282 284 284 285 286 287 288 289 289 289 290 291 292 292 293 294 295 296 297 299
207 208 209 210 212 213 215 216 218 219 220 222 222 222 223 225 227 228 229 230 231 232 232 234 236 236 234 234 235 234 235 237 240 243 245 246 247 246 245 245 244 244 245 246 247 249 251 252 254 255 256 257 257 258 259 260 261 262 263 265 267 269 272 275 278 280 281 282 282 283 285 286 286 286 287 287 289 290 291 292 293 294 294 296 299 301
211 211 211 212 213 214 216 218 219 220 222 223 224 225 227 228 230 232 233 234 235 235 235 235 235 235 233 235 238 239 240 239 240 242 243 246 248 249 249 248 247 247 246 247 247 248 249 251 252 253 254 255 256 256 258 259 260 261 263 265 267 270 273 276 278 279 280 281 281 282 283 283 284 285 286 288 289 291 292 293 293 294 296 299 301 302
213 214 214 215 217 217 218 219 219 220 222 223 223 224 226 227 229 231 232 234 235 235 235 235 234 233 234 238 240 242 244 243 243 243 244 247 249 251 252 252 251 250 248 248 248 248 249 250 251 252 254 255 255 256 257 258 259 261 263 266 269 272 274 276 277 277 278 279 279 280 281 282 283 284 286 288 290 291 292 294 295 297 299 300 301 301
213 214 215 216 218 219 220 220 221 222 223 224 225 225 226 227 229 231 233 234 235 236 236 235 234 233 235 239 242 246 248 248 248 247 246 247 248 250 252 253 253 252 251 250 249 249 249 250 251 252 254 255 256 257 258 259 262 264 266 268 270 272 273 274 274 275 276 277 278 279 281 282 283 285 287 289 290 292 294 295 297 298 299 300 300 300
213 214 214 215 217 218 220 221 221 222 223 225 227 227 228 229 230 231 233 234 235 236 236 235 234 233 236 240 245 249 250 250 249 249 249 249 250 251 252 252 252 252 252 252 252 252 251 252 253 254 255 257 258 259 260 262 264 265 267 268 269 269 270 270 272 273 274 276 278 279 280 282 284 286 288 290 292 294 295 297 298 298 299 299 299 299
213 214 215 215 217 218 219 220 221 222 223 224 225 226 228 230 230 231 233 234 235 236 236 235 235 235 237 242 247 250 251 252 251 251 251 252 252 253 253 253 253 252 252 252 252 252 252 253 254 254 255 257 258 259 261 262 263 264 264 265 265 266 267 269 271 273 275 277 278 280 281 283 286 288 290 291 293 294 295 296 296 296 297 297 298 298
213 215 216 216 218 219 220 221 221 222 222 224 224 225 226 228 230 231 233 234 235 237 237 236 236 236 237 241 245 249 251 253 253 253 253 254 254 252 252 252 252 253 252 252 251 251 251 252 252 253 254 255 256 258 259 260 261 262 262 263 264 266 268 270 272 274 276 278 279 282 284 287 288 289 291 292 293 293 293 294 294 294 295 296 297 297
214 216 217 218 219 220 221 221 222 223 225 226 226 227 228 230 231 232 233 234 235 237 237 237 236 235 237 240 244 248 251 254 256 255 255 255 256 254 252 251 251 252 252 253 252 251 251 251 251 252 253 254 255 256 257 259 260 261 262 264 266 268 270 272 273 275 277 279 282 284 287 288 289 290 291 291 291 291 292 292 293 293 294 295 296 296
216 217 219 219 220 221 222 223 223 225 226 227 227 228 230 232 234 236 236 236 236 237 237 237 237 235 236 240 243 247 251 254 256 258 258 258 258 258 255 252 251 251 252 252 253 252 252 251 251 251 252 253 254 256 257 259 260 262 263 265 267 270 272 274 276 278 280 282 284 286 287 288 289 289 290 290 290 291 291 291 292 293 294 294 295 296
219 220 221 222 222 222 222 223 224 225 226 227 227 227 229 230 231 233 235 234 235 237 238 239 238 235 236 242 245 248 251 253 255 256 258 259 259 259 257 254 252 251 251 252 253 253 254 253 253 253 253 254 255 257 258 260 261 263 265 267 270 272 275 278 280 282 282 283 284 285 287 287 288 289 289 289 290 290 291 292 293 293 294 295 295 296
221 222 223 224 224 224 224 224 224 225 225 226 226 227 229 231 231 233 234 234 235 237 238 240 240 238 238 244 248 250 251 252 253 253 255 257 258 258 256 254 252 252 251 252 253 253 254 254 255 255 256 257 259 260 261 262 264 266 269 271 274 277 279 281 282 282 282 283 283 284 285 286 287 287 288 289 289 290 291 292 293 294 295 296 296 296
224 225 224 225 225 225 225 225 224 224 224 225 225 227 229 230 232 233 235 235 237 237 238 241 242 240 241 245 248 251 251 251 252 251 252 255 255 254 254 253 252 252 251 252 252 253 254 255 257 259 260 262 263 264 265 267 269 271 274 277 278 280 281 281 281 281 281 281 282 283 284 285 286 287 288 289 290 291 292 292 293 294 295 296 296 295
228 229 228 228 228 226 225 224 223 224 226 227 227 228 230 231 233 235 236 237 238 238 239 241 242 242 243 245 248 250 250 249 250 251 251 253 254 254 253 252 251 250 251 252 253 255 256 258 259 261 262 263 264 265 267 270 272 275 277 278 279 280 280 280 281 281 282 283 283 284 285 286 287 288 289 290 291 292 293 294 295 296 296 296 294 293
229 230 230 230 231 229 228 226 226 228 230 231 231 232 234 235 237 238 240 239 239 239 240 240 241 242 242 243 246 249 249 248 249 251 252 253 254 254 253 252 252 252 253 255 256 257 259 260 261 262 262 263 264 266 268 271 273 275 276 277 278 279 280 281 282 283 284 285 285 286 286 287 288 289 290 291 292 293 294 295 296 296 296 295 293 291
228 229 229 229 229 229 229 228 227 229 231 231 231 232 234 235 237 238 239 238 237 239 238 236 236 239 240 240 242 246 249 250 249 250 252 253 253 253 254 256 257 258 258 259 260 260 260 261 261 261 262 263 265 268 270 273 274 276 277 278 280 280 281 282 283 284 285 286 287 288 288 289 290 291 292 293 294 295 296 296 296 296 295 293 292 290
227 229 229 229 229 229 230 230 229 229 230 230 229 230 230 232 233 235 236 236 236 238 237 235 235 237 238 237 238 242 246 249 250 249 251 253 255 256 258 261 263 264 265 265 264 262 260 260 261 262 264 266 268 271 272 274 275 277 278 279 280 281 283 284 285 286 287 288 289 289 290 291 292 293 294 294 295 295 296 296 295 295 293 292 291 289
228 228 229 230 231 230 232 233 232 232 232 232 232 232 232 234 235 236 237 238 239 240 239 238 238 238 239 238 239 242 246 250 253 254 255 258 261 263 264 265 267 268 268 267 267 265 264 264 266 268 270 271 272 273 274 275 277 278 279 280 281 282 284 285 287 288 289 290 291 291 292 292 292 293 293 293 294 294 294 294 293 292 291 290 289 288
233 230 229 230 232 232 233 234 234 234 234 234 234 234 235 236 237 238 237 238 240 240 240 240 241 240 240 239 242 246 251 255 258 261 263 265 266 267 266 266 267 268 268 268 269 269 270 271 272 274 274 275 275 276 276 277 278 278 279 281 282 283 285 286 288 289 289 290 290 291 291 291 291 291 291 291 291 291 291 290 289 288 287 287 287 286
240 236 233 232 233 233 234 235 236 236 237 236 235 234 235 236 237 238 239 240 243 243 242 243 244 243 242 242 244 248 253 258 261 264 265 266 265 265 265 265 266 267 269 270 272 273 274 275 275 276 277 277 277 278 278 278 279 280 281 282 284 285 286 287 288 288 288 289 289 289 289 289 289 289 289 289 289 289 288 287 286 285 285 285 285 285
242 242 239 238 238 236 235 237 239 239 240 239 236 235 236 238 239 241 242 243 244 246 246 245 246 246 245 244 245 247 251 255 258 261 262 263 264 265 264 265 267 269 270 272 273 274 275 275 276 277 278 278 278 279 279 280 281 282 283 284 285 285 286 287 287 287 287 287 287 287 288 288 288 288 289 288 288 287 286 285 284 284 284 284 284 284
241 242 242 241 242 240 238 240 241 243 242 240 237 237 239 240 241 243 244 245 246 247 248 247 247 246 245 244 245 247 249 252 256 258 260 262 263 265 265 266 268 270 271 271 272 273 274 275 276 277 278 278 279 279 280 281 281 282 283 284 284 285 285 286 286 286 287 287 287 288 288 288 289 289 289 288 287 286 285 284 284 284 284 284 284 284
238 240 241 242 242 241 240 240 242 243 242 240 238 239 239 240 242 244 245 244 245 246 246 246 246 245 246 247 247 249 251 253 255 257 259 261 263 264 266 267 269 270 271 271 272 273 274 275 275 276 276 277 278 279 280 280 281 282 283 283 284 284 285 285 286 286 286 287 287 288 288 289 289 289 288 287 286 285 285 284 284 284 285 285 284 284
237 239 241 242 243 243 242 242 243 244 243 241 240 240 240 242 243 245 245 244 245 247 247 247 248 249 250 251 251 251 253 254 255 255 257 259 262 264 266 268 269 270 271 272 272 273 274 274 275 275 276 276 277 278 279 280 280 281 282 282 283 284 284 285 285 286 286 287 287 288 288 288 288 287 286 286 285 285 285 285 285 285 285 285 285 285
235 236 238 240 242 243 245 246 247 247 245 243 242 241 242 245 246 247 248 247 246 248 249 249 250 251 251 251 251 252 253 254 254 255 256 259 262 264 266 267 268 269 270 271 272 273 273 274 274 275 276 276 277 278 278 279 280 280 281 282 282 283 284 284 285 285 286 286 286 287 287 286 286 285 284 284 285 285 285 286 286 286 286 286 285 285
233 234 236 238 240 242 244 245 246 247 244 242 242 243 245 246 246 247 248 246 245 247 249 250 250 250 249 250 251 252 253 254 255 256 259 261 261 262 263 265 266 267 268 269 270 271 272 273 274 275 276 276 277 277 278 279 280 281 281 282 283 284 284 285 285 285 286 286 286 285 285 285 284 284 284 284 285 286 286 286 287 287 287 286 286 286
233 233 234 236 238 239 242 243 246 247 246 244 245 246 246 247 247 248 249 247 245 247 250 250 251 250 249 250 251 252 253 255 256 257 259 260 261 262 262 263 264 266 267 268 269 270 272 273 274 275 275 276 277 278 279 280 281 282 283 284 284 285 285 285 285 285 285 285 285 285 285 285 284 284 285 285 286 286 286 286 286 287 287 287 286 286
233 233 233 235 237 239 241 243 246 248 248 247 247 247 247 249 248 248 249 248 246 249 252 252 252 251 251 252 253 253 255 256 257 257 258 259 261 262 262 263 264 265 266 268 269 270 271 272 273 274 275 277 278 279 280 281 282 283 283 284 284 284 285 285 285 285 285 285 285 285 285 285 285 285 285 285 285 285 285 285 285 285 285 285 285 285
234 235 236 237 239 240 242 243 246 248 248 248 250 250 249 250 249 249 252 252 251 252 253 254 254 253 253 254 255 255 256 257 257 258 258 260 261 262 263 264 265 265 266 267 268 269 270 271 273 274 275 276 277 279 280 280 281 282 282 283 283 283 284 284 284 284 284 284 284 284 284 285 285 284 284 284 284 284 284 284 284 284 284 284 284 284
235 236 237 238 239 241 243 245 247 248 247 247 249 250 250 249 250 253 256 256 255 254 254 254 255 254 254 255 256 256 257 257 258 258 259 260 261 262 263 264 265 266 266 267 268 269 270 271 273 274 275 276 277 278 279 280 280 281 281 281 282 282 283 283 283 283 284 284 284 284 284 284 284 284 284 284 284 284 284 284 284 284 284 284 284 285
236 238 240 240 241 243 244 245 247 247 247 247 248 250 252 253 254 257 257 256 256 256 255 255 255 254 253 254 255 256 257 258 259 259 260 261 262 263 264 265 265 266 267 268 269 270 272 273 274 275 275 276 277 278 278 279 279 279 280 280 281 281 281 282 282 282 282 283 283 282 282 282 282 283 283 284 284 284 284 284 285 285 286 286 287 287
234 237 240 240 240 242 244 245 248 249 250 251 252 254 256 258 258 258 256 255 254 253 253 253 254 254 253 253 253 254 256 257 258 259 260 261 262 263 264 265 266 268 269 270 271 272 272 273 274 274 275 276 276 277 277 277 278 278 279 279 279 280 280 280 280 280 281 281 281 281 281 281 281 282 283 284 284 284 284 285 285 286 287 287 287 288
235 236 239 240 241 243 245 246 247 249 251 252 252 253 254 255 255 255 254 253 253 252 252 253 253 254 254 254 253 254 254 255 257 258 259 261 262 263 264 266 267 268 269 270 271 272 272 273 273 274 274 275 275 275 276 276 276 277 277 277 277 277 278 278 279 279 279 279 280 280 280 280 281 282 283 284 285 285 285 286 286 287 287 288 288 288
241 241 243 244 244 245 245 245 244 245 247 250 251 252 252 253 254 255 255 254 254 254 254 253 253 254 255 256 256 257 257 257 258 259 260 261 262 263 264 265 266 267 269 269 270 271 272 272 272 272 273 273 273 273 274 274 275 275 275 276 276 277 277 278 279 279 279 280 280 280 281 281 282 283 284 285 286 286 287 287 288 288 288 289 289 289
243 244 245 245 245 245 245 245 245 246 247 250 252 254 254 255 255 256 256 257 257 257 257 257 257 257 258 258 258 259 259 259 259 259 260 260 261 263 264 265 266 267 268 268 269 270 270 270 270 271 271 271 272 272 273 273 274 274 275 276 276 277 278 279 280 280 281 281 281 282 282 283 283 284 285 286 287 287 288 288 289 289 289 289 290 290
242 243 244 245 246 247 247 247 247 248 249 250 252 255 256 257 256 256 257 257 258 258 259 259 258 259 258 258 258 258 259 259 260 260 260 260 261 262 262 263 264 265 266 267 267 268 268 268 268 269 269 270 271 271 272 273 274 275 276 277 278 279 280 281 281 282 282 283 283 284 284 285 285 286 287 287 288 289 289 290 290 291 291 291 291 291
241 242 244 245 247 248 249 249 249 250 251 252 254 256 257 258 258 258 257 257 257 257 257 257 257 258 258 258 259 260 260 261 261 261 262 262 262 262 262 262 263 264 265 265 266 267 268 268 269 269 270 270 271 272 273 275 276 277 279 280 281 282 283 283 284 285 285 285 286 286 287 287 288 288 288 288 289 289 290 290 290 291 291 291 291 291
244 245 245 246 246 247 248 250 251 251 251 252 253 255 256 256 257 258 258 257 257 257 257 258 259 260 260 261 262 262 263 263 264 264 265 265 265 265 266 266 267 267 267 267 267 268 268 269 270 271 272 273 274 275 276 278 279 280 282 283 284 285 285 286 286 287 287 287 287 288 288 288 288 288 288 288 288 288 288 288 288 288 288 288 288 288
250 250 251 251 251 251 251 252 252 252 251 250 251 252 253 254 255 256 257 258 258 259 259 259 260 261 262 263 264 265 266 267 267 268 269 269 269 269 270 271 271 272 272 272 273 273 273 274 274 275 276 277 277 278 279 280 281 282 283 284 284 285 285 285 285 285 285 285 286 286 286 286 285 285 285 285 285 285 285 285 285 285 285 286 286 286
Height
5798 5801 5805 5811 5816 5820 5823 5826 5829 5833 5836 5839 5842 5845 5847 5849 5851 5853 5854 5856 5857 5858 5860 5863 5865 5866 5867 5869 5870 5871 5873 5875 5877 5879 5880 5881 5882 5883 5884 5884 5885 5887 5887 5887 5889 5891 5891 5892 5893 5893 5894 5895 5895 5895 5895 5895 5896 5896 5896 5896 5896 5896 5896 5896 5895 5895 5894 5893 5893 5892 5891 5890 5889 5888 5886 5885 5884 5883 5882 5880 5879 5878 5876 5875 5874 5872
5796 5800 5805 5811 5815 5818 5820 5823 5827 5830 5833 5836 5839 5842 5844 5845 5847 5849 5851 5853 5854 5856 5859 5860 5862 5864 5865 5866 5867 5869 5871 5873 5875 5876 5878 5879 5880 5880 5881 5882 5883 5884 5884 5886 5887 5888 5889 5890 5891 5891 5892 5893 5893 5893 5893 5894 5894 5894 5894 5894 5894 5894 5894 5894 5893 5893 5892 5891 5890 5889 5889 5888 5887 5886 5884 5883 5882 5881 5880 5878 5877 5876 5875 5873 5872 5870
5793 5798 5804 5808 5810 5813 5817 5820 5824 5827 5830 5833 5836 5839 5841 5843 5845 5847 5849 5851 5853 5855 5857 5858 5860 5862 5863 5863 5864 5867 5870 5871 5872 5873 5875 5876 5877 5878 5879 5879 5880 5881 5882 5884 5885 5886 5887 5888 5889 5890 5890 5891 5891 5891 5892 5892 5892 5892 5892 5892 5892 5892 5892 5891 5891 5891 5890 5889 5888 5887 5886 5885 5884 5884 5882 5881 5880 5878 5877 5876 5875 5874 5873 5871 5869 5867
5791 5796 5801 5804 5807 5810 5814 5817 5821 5824 5827 5830 5833 5836 5839 5841 5843 5845 5847 5849 5850 5852 5854 5855 5857 5860 5860 5860 5862 5864 5867 5869 5869 5871 5873 5874 5875 5876 5876 5877 5878 5879 5880 5881 5882 5883 5884 5885 5886 5887 5888 5889 5889 5890 5890 5889 5890 5890 5890 5890 5890 5889 5889 5889 5889 5888 5888 5887 5886 5885 5884 5883 5882 5881 5880 5879 5878 5876 5875 5874 5873 5871 5870 5868 5866 5864
5791 5796 5799 5801 5804 5808 5811 5814 5818 5821 5824 5827 5831 5834 5836 5839 5840 5842 5844 5846 5847 5848 5850 5852 5854 5856 5857 5858 5860 5861 5864 5866 5867 5868 5870 5871 5872 5872 5873 5875 5876 5877 5878 5878 5880 5881 5882 5883 5884 5885 5886 5886 5887 5888 5887 5887 5888 5888 5888 5888 5887 5887 5887 5886 5886 5886 5885 5885 5884 5883 5881 5880 5879 5878 5877 5875 5874 5873 5872 5871 5870 5868 5867 5865 5864 5862
5788 5793 5796 5800 5803 5806 5809 5812 5815 5818 5822 5825 5828 5831 5833 5835 5837 5839 5841 5843 5844 5846 5848 5850 5850 5852 5855 5856 5857 5858 5860 5863 5864 5866 5867 5868 5869 5870 5871 5872 5874 5875 5875 5876 5877 5878 5880 5881 5882 5882 5883 5884 5885 5885 5884 5885 5886 5886 5885 5885 5885 5885 5884 5884 5883 5883 5883 5882 5881 5880 5878 5877 5876 5875 5873 5872 5871 5870 5868 5867 5866 5865 5864 5862 5861 5859
5785 5789 5793 5796 5800 5803 5806 5810 5813 5816 5819 5822 5825 5828 5830 5833 5835 5837 5839 5840 5842 5843 5846 5847 5847 5849 5852 5853 5854 5856 5857 5860 5861 5863 5864 5865 5866 5867 5869 5870 5871 5872 5873 5873 5874 5875 5876 5878 5879 5880 5881 5881 5882 5882 5882 5883 5883 5883 5882 5882 5882 5882 5881 5881 5880 5880 5880 5879 5878 5876 5875 5874 5873 5872 5870 5869 5868 5867 5865 5864 5863 5862 5861 5859 5858 5856
5783 5787 5790 5793 5797 5799 5803 5807 5811 5813 5816 5819 5823 5825 5827 5830 5832 5834 5836 5837 5838 5840 5842 5844 5844 5846 5849 5851 5852 5853 5855 5856 5858 5860 5861 5862 5863 5865 5866 5867 5868 5869 5870 5871 5871 5871 5872 5874 5876 5877 5878 5878 5879 5879 5879 5880 5880 5879 5879 5879 5879 5879 5878 5878 5878 5877 5876 5876 5874 5873 5872 5871 5869 5868 5867 5866 5864 5863 5862 5861 5860 5858 5857 5856 5854 5853
5782 5785 5788 5791 5794 5797 5801 5805 5808 5810 5813 5816 5820 5822 5824 5827 5828 5830 5832 5833 5835 5836 5838 5840 5842 5842 5845 5849 5850 5850 5852 5853 5855 5857 5858 5859 5861 5862 5863 5864 5865 5866 5867 5868 5868 5868 5869 5871 5872 5873 5874 5875 5875 5876 5876 5876 5876 5876 5876 5876 5876 5875 5875 5875 5874 5874 5873 5872 5871 5870 5869 5867 5866 5865 5864 5862 5861 5860 5858 5857 5856 5855 5853 5852 5850 5849
5779 5782 5785 5788 5791 5795 5799 5802 5804 5807 5810 5813 5816 5818 5821 5823 5825 5827 5828 5830 5831 5832 5835 5837 5839 5839 5842 5846 5847 5848 5849 5851 5853 5854 5855 5856 5858 5859 5860 5861 5862 5863 5864 5865 5865 5865 5866 5867 5868 5870 5871 5872 5872 5872 5873 5873 5873 5873 5872 5872 5872 5872 5871 5871 5871 5870 5870 5869 5868 5866 5865 5864 5863 5862 5860 5859 5857 5856 5854 5853 5852 5851 5849 5847 5846 5845
5775 5779 5782 5785 5789 5792 5795 5797 5800 5803 5806 5809 5811 5814 5817 5819 5821 5822 5824 5826 5827 5828 5831 5834 5836 5837 5838 5843 5845 5845 5847 5849 5849 5850 5851 5853 5854 5856 5857 5858 5859 5860 5861 5862 5862 5863 5863 5864 5865 5866 5867 5868 5868 5869 5869 5869 5869 5869 5869 5869 5868 5868 5868 5867 5867 5866 5866 5865 5864 5863 5862 5861 5859 5858 5857 5855 5853 5852 5851 5849 5848 5847 5845 5843 5842 5840
5771 5774 5777 5781 5785 5788 5791 5793 5796 5798 5801 5805 5808 5811 5813 5815 5816 5818 5819 5821 5822 5825 5829 5831 5833 5834 5835 5840 5843 5843 5844 5845 5846 5847 5848 5849 5851 5852 5853 5854 5856 5856 5857 5858 5859 5859 5860 5861 5862 5863 5864 5864 5865 5865 5865 5865 5865 5865 5865 5865 5865 5864 5864 5863 5863 5862 5862 5861 5860 5859 5858 5857 5856 5854 5853 5851 5849 5848 5847 5845 5844 5843 5841 5839 5838 5836
5767 5770 5774 5777 5780 5783 5786 5788 5791 5794 5797 5800 5803 5806 5808 5809 5811 5813 5815 5817 5819 5823 5826 5828 5830 5830 5833 5838 5840 5841 5841 5842 5843 5844 5845 5846 5847 5848 5850 5851 5852 5853 5854 5855 5855 5856 5856 5857 5858 5859 5860 5860 5860 5861 5861 5861 5861 5861 5861 5861 5861 5860 5860 5859 5859 5858 5858 5857 5856 5855 5854 5853 5852 5850 5848 5847 5845 5844 5842 5841 5840 5839 5837 5835 5834 5832
5762 5765 5769 5772 5775 5779 5781 5784 5788 5792 5795 5798 5800 5802 5803 5805 5807 5809 5812 5815 5818 5821 5823 5825 5826 5828 5831 5834 5835 5837 5838 5839 5841 5841 5842 5843 5844 5845 5846 5847 5848 5849 5850 5851 5852 5852 5853 5853 5854 5855 5855 5856 5856 5856 5856 5856 5856 5856 5857 5856 5856 5856 5855 5855 5854 5854 5853 5853 5852 5851 5850 5849 5847 5846 5844 5842 5841 5840 5838 5837 5836 5834 5833 5831 5829 5827
5761 5764 5767 5770 5773 5776 5779 5782 5786 5790 5792 5794 5797 5799 5801 5803 5806 5809 5811 5813 5815 5818 5819 5821 5822 5825 5828 5830 5831 5833 5835 5837 5838 5838 5838 5839 5840 5841 5842 5843 5844 5846 5847 5847 5848 5849 5849 5850 5850 5850 5851 5851 5852 5852 5852 5852 5852 5852 5852 5852 5852 5851 5851 5850 5850 5849 5849 5849 5848 5847 5846 5844 5843 5841 5839 5838 5837 5836 5834 5833 5831 5830 5828 5826 5824 5822
5760 5764 5768 5770 5773 5775 5777 5780 5783 5785 5786 5788 5791 5793 5796 5799 5802 5804 5806 5808 5810 5812 5813 5816 5819 5822 5825 5826 5827 5829 5831 5833 5834 5834 5835 5836 5837 5838 5838 5839 5841 5842 5843 5843 5844 5845 5845 5846 5846 5846 5846 5847 5847 5847 5847 5847 5848 5848 5848 5847 5847 5847 5846 5846 5846 5845 5845 5844 5844 5843 5841 5840 5838 5836 5835 5834 5832 5831 5830 5828 5826 5825 5823 5821 5819 5818
5757 5761 5764 5767 5770 5772 5774 5777 5779 5780 5782 5785 5787 5789 5793 5796 5798 5800 5802 5804 5806 5807 5809 5813 5816 5820 5821 5821 5823 5825 5827 5829 5830 5831 5832 5833 5833 5834 5835 5836 5836 5837 5838 5839 5839 5840 5841 5841 5841 5841 5842 5842 5842 5842 5842 5842 5843 5843 5843 5843 5842 5842 5842 5842 5841 5841 5841 5840 5839 5838 5837 5835 5833 5832 5831 5829 5828 5827 5825 5823 5821 5819 5818 5816 5815 5813
5755 5758 5761 5763 5765 5767 5770 5772 5774 5776 5779 5782 5784 5789 5792 5793 5794 5796 5798 5800 5802 5804 5806 5810 5813 5816 5817 5817 5819 5821 5822 5824 5826 5827 5828 5829 5830 5831 5832 5832 5832 5833 5833 5834 5835 5835 5836 5836 5837 5837 5837 5837 5837 5836 5837 5837 5838 5838 5838 5838 5838 5837 5837 5837 5837 5837 5836 5836 5835 5833 5832 5830 5829 5828 5826 5825 5823 5822 5820 5818 5816 5815 5813 5811 5809 5807
5751 5754 5756 5758 5760 5763 5765 5767 5769 5772 5775 5778 5782 5786 5787 5787 5790 5793 5794 5796 5799 5800 5803 5806 5809 5812 5814 5815 5816 5817 5817 5819 5821 5823 5824 5825 5826 5827 5828 5828 5828 5828 5829 5830 5830 5830 5831 5832 5832 5832 5832 5832 5832 5832 5832 5833 5833 5833 5833 5833 5833 5832 5832 5832 5832 5832 5831 5831 5830 5828 5827 5825 5824 5823 5821 5820 5818 5817 5815 5814 5812 5810 5808 5806 5804 5802
5746 5748 5750 5753 5756 5758 5760 5762 5765 5769 5772 5775 5777 5780 5781 5783 5786 5788 5790 5792 5795 5796 5799 5802 5805 5808 5811 5813 5813 5812 5813 5815 5817 5819 5820 5821 5822 5823 5823 5824 5824 5824 5824 5825 5825 5826 5826 5827 5827 5827 5827 5827 5827 5827 5827 5828 5828 5828 5828 5828 5828 5828 5828 5828 5828 5827 5826 5825 5824 5823 5822 5820 5819 5817 5816 5815 5813 5812 5810 5809 5807 5805 5803 5800 5798 5796
5741 5743 5745 5748 5750 5752 5755 5758 5763 5766 5769 5771 5773 5776 5778 5780 5782 5784 5786 5788 5790 5792 5795 5797 5800 5804 5807 5809 5808 5809 5810 5811 5812 5813 5815 5816 5817 5818 5819 5819 5819 5819 5819 5820 5820 5821 5821 5821 5822 5822 5822 5822 5822 5822 5823 5823 5823 5823 5823 5823 5823 5823 5823 5823 5823 5822 5821 5820 5818 5817 5816 5815 5813 5812 5811 5809 5808 5806 5805 5803 5801 5799 5797 5795 5793 5791
5736 5739 5741 5743 5746 5749 5752 5756 5759 5761 5764 5766 5769 5772 5775 5777 5779 5780 5782 5784 5787 5788 5790 5792 5795 5799 5803 5804 5804 5806 5807 5807 5808 5809 5810 5812 5813 5813 5814 5815 5815 5815 5815 5815 5815 5815 5815 5816 5816 5817 5817 5818 5818 5818 5818 5819 5818 5818 5818 5818 5819 5819 5818 5818 5818 5817 5816 5814 5813 5812 5811 5809 5807 5806 5805 5804 5802 5801 5799 5797 5795 5793 5791 5789 5787 5785
5733 5735 5736 5738 5742 5745 5747 5750 5753 5755 5758 5761 5763 5766 5769 5770 5772 5774 5776 5780 5782 5782 5785 5787 5789 5794 5799 5799 5801 5803 5803 5803 5804 5805 5806 5807 5808 5809 5809 5809 5810 5810 5810 5810 5810 5810 5810 5811 5811 5812 5813 5813 5814 5814 5814 5814 5814 5813 5813 5813 5814 5814 5813 5813 5812 5811 5809 5808 5807 5806 5805 5803 5802 5800 5799 5798 5796 5794 5793 5791 5789 5787 5785 5783 5781 5779
5728 5729 5731 5734 5736 5739 5741 5744 5747 5749 5752 5755 5758 5762 5764 5766 5769 5771 5772 5776 5776 5777 5781 5781 5783 5790 5796 5797 5797 5798 5798 5799 5801 5801 5802 5802 5803 5804 5804 5804 5804 5805 5805 5805 5805 5805 5805 5805 5806 5807 5808 5809 5810 5810 5809 5809 5808 5808 5808 5808 5808 5808 5807 5806 5806 5804 5803 5802 5801 5800 5799 5798 5796 5795 5793 5791 5790 5788 5786 5785 5783 5781 5779 5777 5774 5772
5723 5723 5725 5727 5729 5732 5734 5736 5739 5743 5747 5751 5755 5758 5760 5762 5764 5765 5768 5770 5770 5773 5777 5776 5780 5789 5794 5794 5793 5792 5794 5796 5796 5797 5798 5798 5798 5798 5798 5799 5799 5800 5800 5799 5799 5800 5800 5801 5802 5803 5804 5805 5805 5805 5804 5803 5803 5803 5803 5803 5802 5802 5801 5800 5799 5798 5797 5796 5795 5794 5793 5792 5790 5788 5787 5785 5783 5782 5780 5778 5777 5775 5773 5770 5767 5765
5716 5717 5720 5722 5723 5725 5728 5732 5738 5743 5747 5749 5751 5754 5756 5758 5760 5762 5763 5764 5766 5770 5772 5773 5779 5786 5788 5789 5788 5787 5789 5791 5791 5791 5792 5792 5792 5793 5793 5794 5794 5794 5794 5794 5794 5795 5796 5797 5798 5799 5800 5800 5800 5799 5799 5798 5798 5797 5797 5796 5796 5795 5794 5793 5793 5792 5791 5789 5788 5787 5786 5785 5783 5782 5780 5778 5777 5775 5773 5771 5770 5768 5765 5763 5760 5757
5709 5710 5714 5717 5719 5723 5728 5734 5739 5743 5743 5744 5748 5751 5752 5754 5756 5757 5757 5759 5763 5767 5767 5771 5777 5781 5782 5784 5783 5781 5783 5785 5785 5785 5786 5786 5786 5786 5787 5788 5788 5789 5790 5790 5790 5790 5791 5792 5794 5794 5794 5794 5794 5793 5793 5793 5792 5792 5791 5790 5789 5789 5788 5787 5786 5785 5784 5783 5781 5780 5779 5777 5776 5774 5773 5771 5769 5768 5766 5764 5762 5760 5757 5755 5752 5750
5702 5704 5708 5712 5716 5721 5726 5730 5732 5734 5735 5738 5742 5743 5745 5747 5749 5749 5750 5755 5760 5759 5760 5768 5773 5774 5776 5778 5776 5776 5777 5778 5779 5780 5780 5779 5779 5780 5781 5782 5783 5784 5785 5785 5785 5786 5787 5787 5788 5788 5787 5788 5788 5788 5788 5787 5786 5786 5785 5784 5783 5782 5781 5781 5780 5779 5778 5776 5775 5773 5772 5770 5768 5766 5764 5763 5761 5759 5758 5755 5753 5751 5749 5747 5745 5742
5696 5699 5705 5708 5712 5717 5720 5722 5724 5726 5728 5731 5733 5735 5737 5739 5740 5742 5746 5750 5752 5751 5757 5766 5768 5767 5769 5771 5771 5771 5771 5770 5772 5773 5773 5773 5773 5775 5777 5778 5778 5778 5779 5778 5778 5779 5780 5781 5781 5781 5781 5782 5782 5782 5781 5781 5780 5779 5778 5778 5776 5775 5775 5774 5773 5772 5770 5769 5768 5766 5764 5762 5760 5758 5756 5755 5753 5751 5750 5748 5745 5743 5741 5739 5737 5735
5690 5695 5701 5704 5707 5712 5713 5715 5718 5721 5722 5724 5726 5729 5732 5733 5736 5739 5742 5746 5747 5748 5756 5762 5761 5762 5765 5766 5767 5767 5766 5766 5766 5767 5768 5768 5768 5770 5772 5772 5772 5772 5771 5770 5769 5770 5772 5774 5775 5775 5775 5775 5775 5775 5774 5774 5773 5772 5772 5771 5770 5769 5768 5766 5765 5764 5762 5761 5759 5758 5756 5755 5753 5751 5750 5748 5746 5744 5742 5740 5738 5736 5733 5732 5730 5728
5685 5691 5695 5699 5702 5704 5706 5710 5712 5713 5716 5718 5720 5722 5725 5728 5731 5734 5738 5742 5742 5745 5753 5755 5753 5757 5762 5764 5764 5764 5763 5762 5761 5761 5763 5764 5764 5765 5765 5765 5765 5764 5763 5762 5762 5763 5766 5767 5768 5768 5768 5769 5768 5768 5767 5767 5766 5766 5765 5764 5763 5762 5760 5759 5758 5756 5755 5753 5752 5751 5749 5748 5746 5745 5743 5741 5739 5737 5735 5732 5730 5729 5726 5724 5723 5720
5681 5685 5689 5693 5693 5695 5701 5704 5705 5708 5710 5709 5711 5715 5720 5723 5727 5731 5736 5739 5739 5742 5748 5747 5747 5754 5760 5761 5761 5760 5759 5757 5756 5756 5756 5757 5757 5758 5758 5758 5757 5757 5756 5756 5757 5758 5759 5760 5761 5761 5761 5761 5761 5761 5760 5760 5759 5758 5758 5757 5755 5754 5753 5752 5750 5749 5748 5746 5745 5743 5742 5740 5739 5737 5735 5733 5731 5729 5727 5725 5723 5721 5719 5717 5715 5713
5676 5679 5684 5686 5686 5691 5696 5697 5700 5702 5698 5696 5705 5715 5719 5722 5726 5729 5731 5733 5735 5737 5740 5741 5745 5751 5754 5754 5754 5754 5753 5752 5751 5750 5750 5749 5750 5750 5750 5751 5751 5751 5751 5751 5752 5752 5753 5753 5754 5753 5753 5753 5753 5753 5752 5752 5751 5750 5750 5749 5748 5747 5745 5744 5743 5741 5740 5738 5737 5736 5734 5733 5731 5729 5727 5725 5723 5721 5719 5717 5715 5714 5712 5710 5708 5706
5671 5674 5677 5679 5681 5685 5688 5690 5692 5687 5682 5691 5708 5717 5718 5720 5722 5722 5723 5727 5730 5731 5733 5736 5741 5743 5744 5745 5746 5747 5747 5746 5745 5744 5743 5743 5743 5743 5744 5745 5745 5745 5746 5746 5746 5746 5746 5747 5747 5746 5746 5745 5744 5744 5744 5744 5743 5742 5742 5741 5740 5739 5737 5736 5735 5733 5731 5730 5728 5727 5725 5724 5722 5721 5719 5717 5715 5713 5711 5709 5708 5706 5705 5703 5701 5699
5666 5668 5670 5672 5675 5677 5680 5682 5678 5673 5680 5697 5708 5710 5711 5713 5713 5714 5716 5721 5723 5724 5726 5729 5732 5735 5737 5738 5739 5740 5740 5739 5738 5737 5737 5737 5737 5737 5738 5739 5739 5739 5739 5739 5739 5740 5740 5740 5740 5740 5739 5738 5737 5737 5737 5736 5735 5735 5734 5732 5731 5730 5729 5727 5726 5724 5723 5721 5719 5718 5716 5715 5713 5712 5710 5709 5707 5705 5703 5702 5700 5699 5698 5696 5694 5692
5661 5662 5664 5666 5667 5669 5671 5671 5669 5674 5686 5695 5696 5700 5704 5705 5707 5708 5709 5713 5717 5718 5720 5723 5727 5731 5732 5731 5731 5732 5731 5730 5729 5730 5731 5731 5731 5732 5732 5732 5732 5732 5731 5731 5731 5732 5732 5732 5732 5732 5731 5731 5731 5730 5729 5729 5728 5727 5726 5724 5723 5721 5720 5719 5717 5716 5714 5713 5711 5710 5708 5706 5705 5704 5702 5701 5699 5697 5696 5694 5693 5692 5691 5689 5687 5685
5654 5656 5659 5659 5660 5662 5664 5664 5668 5674 5680 5684 5689 5696 5699 5699 5702 5703 5701 5705 5711 5711 5713 5717 5722 5725 5725 5722 5722 5722 5720 5719 5719 5724 5727 5727 5726 5726 5726 5726 5725 5725 5724 5724 5723 5724 5724 5724 5723 5723 5723 5723 5723 5722 5722 5721 5720 5719 5718 5716 5715 5713 5711 5710 5708 5707 5706 5704 5703 5702 5700 5699 5697 5696 5695 5693 5692 5690 5688 5687 5685 5684 5683 5682 5679 5677
5648 5649 5652 5653 5654 5656 5657 5659 5662 5664 5670 5680 5687 5691 5692 5692 5694 5693 5689 5693 5703 5706 5708 5711 5714 5717 5716 5713 5712 5712 5711 5709 5713 5720 5722 5719 5718 5720 5719 5719 5718 5718 5718 5717 5716 5716 5715 5715 5715 5715 5715 5714 5714 5713 5713 5712 5712 5711 5709 5708 5706 5704 5703 5701 5699 5698 5697 5696 5695 5693 5692 5691 5689 5688 5687 5685 5684 5682 5680 5679 5677 5676 5675 5674 5672 5670
5641 5643 5646 5646 5647 5650 5651 5653 5654 5656 5667 5679 5682 5683 5683 5682 5685 5683 5677 5685 5700 5704 5702 5704 5706 5707 5707 5704 5702 5703 5702 5703 5709 5715 5713 5709 5710 5712 5711 5711 5711 5711 5711 5710 5709 5709 5708 5707 5707 5706 5706 5705 5705 5704 5704 5703 5703 5701 5700 5698 5697 5695 5694 5692 5690 5689 5688 5687 5686 5685 5684 5683 5681 5680 5679 5677 5676 5674 5672 5670 5669 5667 5666 5665 5663 5662
5634 5636 5638 5638 5640 5644 5645 5647 5648 5653 5665 5672 5672 5674 5674 5674 5676 5673 5668 5682 5700 5699 5694 5696 5697 5696 5697 5695 5694 5696 5696 5698 5703 5705 5702 5700 5702 5703 5702 5703 5704 5703 5703 5703 5702 5702 5701 5700 5699 5698 5697 5697 5696 5696 5695 5695 5694 5693 5691 5690 5688 5687 5685 5684 5682 5681 5679 5678 5677 5676 5675 5674 5673 5671 5670 5669 5667 5666 5664 5662 5661 5659 5657 5656 5654 5653
5628 5630 5631 5633 5637 5639 5640 5641 5644 5650 5659 5664 5664 5665 5666 5666 5665 5662 5667 5684 5693 5689 5687 5688 5686 5687 5689 5688 5687 5690 5691 5692 5694 5694 5693 5693 5694 5694 5694 5695 5695 5695 5696 5695 5694 5694 5693 5692 5692 5691 5690 5689 5688 5688 5687 5686 5686 5684 5683 5682 5680 5679 5677 5676 5674 5673 5671 5670 5668 5667 5666 5665 5664 5663 5661 5660 5659 5657 5655 5653 5652 5650 5649 5647 5645 5643
5622 5624 5625 5628 5631 5633 5635 5637 5639 5644 5652 5656 5656 5656 5656 5655 5655 5660 5671 5679 5678 5677 5681 5680 5677 5680 5682 5680 5681 5682 5683 5683 5685 5685 5685 5685 5686 5686 5686 5686 5686 5687 5687 5687 5686 5686 5685 5684 5684 5683 5682 5681 5680 5679 5679 5678 5677 5676 5674 5673 5672 5670 5669 5667 5666 5664 5662 5661 5660 5658 5657 5656 5655 5654 5652 5651 5649 5648 5646 5643 5642 5640 5638 5637 5635 5633
5617 5618 5619 5623 5626 5628 5629 5630 5632 5638 5645 5649 5649 5647 5646 5648 5654 5660 5666 5668 5667 5670 5672 5669 5669 5671 5672 5673 5674 5674 5674 5676 5676 5677 5677 5677 5678 5678 5678 5677 5677 5677 5677 5678 5678 5678 5677 5676 5675 5674 5673 5673 5672 5671 5670 5669 5668 5667 5666 5665 5663 5662 5661 5659 5657 5656 5654 5652 5651 5649 5648 5647 5645 5644 5642 5641 5639 5638 5636 5634 5632 5630 5628 5626 5624 5623
5609 5611 5613 5617 5621 5621 5621 5623 5629 5635 5639 5642 5643 5642 5641 5645 5650 5653 5654 5656 5659 5661 5661 5660 5660 5660 5662 5666 5666 5665 5667 5668 5667 5668 5669 5669 5669 5669 5669 5669 5669 5668 5668 5669 5668 5669 5669 5667 5667 5666 5665 5664 5663 5662 5662 5661 5660 5659 5657 5656 5655 5653 5652 5650 5649 5647 5645 5643 5642 5640 5639 5637 5636 5634 5632 5631 5630 5628 5627 5625 5623 5621 5618 5616 5613 5612
5603 5606 5608 5612 5614 5614 5616 5622 5628 5632 5632 5633 5634 5634 5634 5637 5639 5640 5643 5646 5648 5650 5652 5653 5652 5651 5653 5655 5656 5658 5659 5659 5660 5661 5661 5660 5661 5661 5661 5661 5660 5660 5660 5660 5660 5660 5659 5659 5658 5657 5656 5655 5654 5653 5652 5652 5651 5650 5649 5648 5647 5645 5643 5642 5640 5638 5637 5635 5633 5632 5630 5629 5627 5625 5623 5621 5619 5618 5617 5615 5613 5611 5609 5606 5603 5601
5599 5602 5604 5606 5608 5609 5612 5618 5623 5626 5626 5625 5624 5625 5627 5630 5631 5631 5634 5636 5638 5641 5643 5643 5643 5643 5644 5645 5647 5650 5650 5651 5653 5653 5653 5653 5654 5653 5653 5653 5652 5652 5652 5652 5651 5651 5651 5650 5650 5648 5647 5646 5645 5644 5644 5643 5642 5641 5640 5639 5638 5636 5635 5633 5631 5629 5628 5626 5624 5623 5622 5620 5617 5615 5613 5611 5609 5607 5605 5604 5602 5601 5598 5595 5592 5589
5592 5595 5597 5599 5601 5603 5608 5614 5618 5620 5620 5619 5618 5619 5621 5623 5624 5625 5626 5629 5631 5633 5634 5635 5636 5636 5637 5638 5640 5641 5642 5644 5645 5645 5646 5647 5646 5645 5646 5645 5644 5645 5644 5643 5643 5643 5642 5642 5641 5640 5639 5637 5636 5635 5634 5634 5633 5632 5631 5630 5628 5627 5626 5624 5622 5620 5618 5617 5615 5613 5611 5610 5607 5605 5603 5600 5598 5596 5594 5592 5590 5589 5587 5584 5580 5578
5585 5588 5589 5592 5595 5599 5604 5610 5613 5613 5614 5614 5613 5613 5614 5615 5617 5619 5621 5623 5625 5626 5627 5628 5628 5628 5630 5631 5632 5633 5635 5636 5636 5638 5639 5639 5639 5639 5639 5638 5638 5637 5636 5635 5635 5634 5633 5633 5632 5631 5630 5628 5626 5626 5625 5624 5623 5622 5621 5620 5618 5617 5616 5614 5612 5610 5608 5606 5604 5602 5600 5598 5596 5594 5592 5590 5587 5584 5582 5580 5578 5576 5574 5570 5566 5565
5579 5581 5584 5587 5590 5593 5599 5604 5606 5606 5607 5608 5608 5608 5608 5608 5610 5612 5614 5616 5618 5619 5620 5620 5621 5621 5623 5624 5625 5627 5628 5628 5629 5630 5630 5631 5631 5631 5631 5631 5631 5630 5629 5628 5627 5626 5625 5624 5623 5622 5620 5618 5616 5616 5615 5615 5614 5612 5610 5609 5608 5606 5605 5603 5601 5599 5596 5595 5593 5590 5589 5587 5584 5582 5580 5578 5576 5574 5571 5569 5566 5564 5562 5559 5554 5551
5573 5575 5579 5581 5582 5587 5594 5599 5598 5597 5599 5602 5603 5602 5601 5602 5603 5605 5606 5608 5610 5611 5612 5613 5614 5615 5616 5616 5618 5619 5619 5620 5621 5621 5622 5622 5622 5622 5622 5622 5621 5620 5620 5619 5618 5617 5616 5615 5614 5612 5610 5608 5607 5606 5606 5605 5604 5602 5600 5598 5596 5595 5594 5592 5590 5587 5585 5583 5581 5579 5578 5576 5573 5571 5569 5567 5565 5563 5561 5559 5555 5552 5550 5549 5545 5540
5567 5570 5573 5573 5576 5583 5589 5589 5587 5587 5590 5594 5595 5594 5593 5595 5597 5598 5599 5600 5601 5602 5604 5606 5607 5607 5607 5608 5609 5609 5610 5610 5611 5611 5612 5612 5612 5612 5612 5611 5610 5610 5609 5608 5607 5606 5605 5605 5604 5603 5601 5599 5598 5597 5596 5595 5594 5592 5590 5588 5586 5585 5583 5582 5580 5578 5575 5573 5571 5569 5568 5566 5563 5561 5558 5556 5553 5552 5550 5549 5547 5543 5538 5535 5533 5531